Location: Albany
(35.0000°S, 118.0000°E)
Time: 19:21:52
(UTC-05:00)

Vanguard 3 - Visible Passes

Search period start: 25 January 2015 00:00
Search period end: 04 February 2015 00:00
Orbit: 508 x 3276 km, 33.4° (Epoch: 24 January)

Date Brightness Start Highest point End Pass type
(mag) Time Alt. Az. Time Alt. Az. Time Alt. Az.
25 Jan 9.7 15:35:50 10° N 15:37:22 11° NNE 15:38:57 10° NE visible
27 Jan 9.4 15:20:21 10° NNW 15:25:10 17° NNE 15:28:56 10° ENE visible
28 Jan 10.0 14:10:29 11° N 14:12:24 12° NNE 14:15:21 10° NE visible
29 Jan 9.2 15:06:56 12° NNW 15:12:56 24° NNE 15:17:44 10° ENE visible
30 Jan 9.8 13:58:39 18° NNE 14:00:06 18° NNE 14:05:12 10° ENE visible
31 Jan 10.4 12:50:19 11° NE 12:50:19 11° NE 12:50:59 10° NE visible
31 Jan 9.0 14:55:01 18° NNW 15:00:37 32° NNE 15:06:10 10° E visible
01 Feb 9.6 13:46:39 25° NNE 13:47:42 25° NNE 13:54:01 10° ENE visible
01 Feb 8.1 15:51:57 10° WNW 16:00:48 51° NNE 16:05:59 10° E visible
02 Feb 10.2 12:38:14 16° NE 12:38:14 16° NE 12:40:53 10° ENE visible
02 Feb 8.8 14:42:56 25° NNW 14:48:14 41° NNE 14:54:25 10° E visible
03 Feb 9.4 13:34:28 32° NNE 13:35:12 33° NNE 13:42:27 10° E visible
03 Feb 8.1 15:39:10 12° WNW 15:48:26 61° NNE 15:54:04 10° E visible
